Time,TemperatureF,DewpointF,PressureIn,WindDirection,WindDirectionDegrees,WindSpeedMPH,WindSpeedGustMPH,Humidity,HourlyPrecipIn,Conditions,Clouds,dailyrainin,SolarRadiationWatts/m^2,SoftwareType,DateUTC
2013-02-19 00:12:00,5.0,-1.0,-100.00,NW,304,16.0,24.0,77,0.00,,,0.00,1.000000,,2013-02-19 06:12:00,
2013-02-19 00:22:00,5.0,-1.0,-100.00,NW,304,16.0,24.0,77,0.00,,,0.00,1.000000,,2013-02-19 06:22:00,
2013-02-19 00:32:00,5.0,-1.0,-100.00,NW,304,16.0,24.0,77,0.00,,,0.00,1.000000,,2013-02-19 06:32:00,
2013-02-19 00:42:00,5.0,-1.0,-100.00,NW,304,16.0,24.0,77,0.00,,,0.00,1.000000,,2013-02-19 06:42:00,
2013-02-19 01:11:00,5.0,0.0,-100.00,NW,310,14.0,22.0,78,0.00,,,0.00,1.000000,,2013-02-19 07:11:00,
2013-02-19 01:22:00,5.0,0.0,-100.00,NW,310,14.0,22.0,78,0.00,,,0.00,1.000000,,2013-02-19 07:22:00,
2013-02-19 01:32:00,5.0,0.0,-100.00,NW,310,14.0,22.0,78,0.00,,,0.00,1.000000,,2013-02-19 07:32:00,
2013-02-19 01:42:00,5.0,0.0,-100.00,NW,310,14.0,22.0,78,0.00,,,0.00,1.000000,,2013-02-19 07:42:00,
2013-02-19 02:11:00,4.0,-2.0,-100.00,NW,309,13.0,24.0,75,0.00,,,0.00,1.000000,,2013-02-19 08:11:00,
2013-02-19 02:21:00,4.0,-2.0,-100.00,NW,309,13.0,24.0,75,0.00,,,0.00,1.000000,,2013-02-19 08:21:00,
2013-02-19 02:31:00,4.0,-2.0,-100.00,NW,309,13.0,24.0,75,0.00,,,0.00,1.000000,,2013-02-19 08:31:00,
2013-02-19 02:42:00,4.0,-2.0,-100.00,NW,309,13.0,24.0,75,0.00,,,0.00,1.000000,,2013-02-19 08:42:00,
2013-02-19 03:11:00,3.0,-4.0,-100.00,NW,305,14.0,21.0,72,0.00,,,0.00,1.000000,,2013-02-19 09:11:00,
2013-02-19 03:22:00,3.0,-4.0,-100.00,NW,305,14.0,21.0,72,0.00,,,0.00,1.000000,,2013-02-19 09:22:00,
2013-02-19 03:32:00,3.0,-4.0,-100.00,NW,305,14.0,21.0,72,0.00,,,0.00,1.000000,,2013-02-19 09:32:00,
2013-02-19 03:42:00,3.0,-4.0,-100.00,NW,305,14.0,21.0,72,0.00,,,0.00,1.000000,,2013-02-19 09:42:00,
2013-02-19 04:11:00,3.0,-4.0,-100.00,NW,309,14.0,22.0,72,0.00,,,0.00,1.000000,,2013-02-19 10:11:00,
2013-02-19 04:22:00,3.0,-4.0,-100.00,NW,309,14.0,22.0,72,0.00,,,0.00,1.000000,,2013-02-19 10:22:00,
2013-02-19 04:32:00,3.0,-4.0,-100.00,NW,309,14.0,22.0,72,0.00,,,0.00,1.000000,,2013-02-19 10:32:00,
2013-02-19 04:42:00,3.0,-4.0,-100.00,NW,309,14.0,22.0,72,0.00,,,0.00,1.000000,,2013-02-19 10:42:00,
2013-02-19 05:11:00,3.0,-5.0,-100.00,NW,308,14.0,24.0,70,0.00,,,0.00,1.000000,,2013-02-19 11:11:00,
2013-02-19 05:22:00,3.0,-5.0,-100.00,NW,308,14.0,24.0,70,0.00,,,0.00,1.000000,,2013-02-19 11:22:00,
2013-02-19 05:32:00,3.0,-5.0,-100.00,NW,308,14.0,24.0,70,0.00,,,0.00,1.000000,,2013-02-19 11:32:00,
2013-02-19 05:42:00,3.0,-5.0,-100.00,NW,308,14.0,24.0,70,0.00,,,0.00,1.000000,,2013-02-19 11:42:00,
2013-02-19 06:12:00,2.0,-6.0,-100.00,NW,311,12.0,21.0,69,0.00,,,0.00,1.000000,,2013-02-19 12:12:00,
2013-02-19 06:22:00,2.0,-6.0,-100.00,NW,311,12.0,21.0,69,0.00,,,0.00,1.000000,,2013-02-19 12:22:00,
2013-02-19 06:32:00,2.0,-6.0,-100.00,NW,311,12.0,21.0,69,0.00,,,0.00,1.000000,,2013-02-19 12:32:00,
2013-02-19 06:42:00,2.0,-6.0,-100.00,NW,311,12.0,21.0,69,0.00,,,0.00,1.000000,,2013-02-19 12:42:00,
2013-02-19 07:11:00,-1.0,-9.0,-100.00,WNW,300,15.0,22.0,69,0.00,,,0.00,1.000000,,2013-02-19 13:11:00,
2013-02-19 07:22:00,-1.0,-9.0,-100.00,WNW,300,15.0,22.0,69,0.00,,,0.00,1.000000,,2013-02-19 13:22:00,
2013-02-19 07:32:00,-1.0,-9.0,-100.00,WNW,300,15.0,22.0,69,0.00,,,0.00,1.000000,,2013-02-19 13:32:00,
2013-02-19 07:42:00,-1.0,-9.0,-100.00,WNW,300,15.0,22.0,69,0.00,,,0.00,1.000000,,2013-02-19 13:42:00,
2013-02-19 08:11:00,-1.0,-9.0,-100.00,NW,307,15.0,23.0,67,0.00,,,-99.99,15.000000,,2013-02-19 14:11:00,
2013-02-19 08:21:00,-1.0,-9.0,-100.00,NW,307,15.0,23.0,67,0.00,,,-99.99,15.000000,,2013-02-19 14:21:00,
2013-02-19 08:32:00,-1.0,-9.0,-100.00,NW,307,15.0,23.0,67,0.00,,,-99.99,15.000000,,2013-02-19 14:32:00,
2013-02-19 08:42:00,-1.0,-9.0,-100.00,NW,307,15.0,23.0,67,0.00,,,-99.99,15.000000,,2013-02-19 14:42:00,
2013-02-19 09:11:00,0.0,-9.0,-100.00,NW,307,17.0,25.0,64,0.00,,,0.00,64.000000,,2013-02-19 15:11:00,
2013-02-19 09:21:00,0.0,-9.0,-100.00,NW,307,17.0,25.0,64,0.00,,,0.00,64.000000,,2013-02-19 15:21:00,
2013-02-19 09:32:00,0.0,-9.0,-100.00,NW,307,17.0,25.0,64,0.00,,,0.00,64.000000,,2013-02-19 15:32:00,
2013-02-19 09:42:00,0.0,-9.0,-100.00,NW,307,17.0,25.0,64,0.00,,,0.00,64.000000,,2013-02-19 15:42:00,
2013-02-19 10:11:00,0.0,-11.0,-100.00,NW,304,18.0,26.0,59,0.00,,,0.00,334.000000,,2013-02-19 16:11:00,
2013-02-19 10:22:00,0.0,-11.0,-100.00,NW,304,18.0,26.0,59,0.00,,,0.00,334.000000,,2013-02-19 16:22:00,
2013-02-19 10:32:00,0.0,-11.0,-100.00,NW,304,18.0,26.0,59,0.00,,,0.00,334.000000,,2013-02-19 16:32:00,
2013-02-19 10:41:00,0.0,-11.0,-100.00,NW,304,18.0,26.0,59,0.00,,,0.00,334.000000,,2013-02-19 16:41:00,
2013-02-19 11:11:00,2.0,-10.0,-100.00,NW,307,18.0,27.0,56,0.00,,,0.00,500.000000,,2013-02-19 17:11:00,
2013-02-19 11:21:00,2.0,-10.0,-100.00,NW,307,18.0,27.0,56,0.00,,,0.00,500.000000,,2013-02-19 17:21:00,
2013-02-19 11:32:00,2.0,-10.0,-100.00,NW,307,18.0,27.0,56,0.00,,,0.00,500.000000,,2013-02-19 17:32:00,
2013-02-19 11:42:00,2.0,-10.0,-100.00,NW,307,18.0,27.0,56,0.00,,,0.00,500.000000,,2013-02-19 17:42:00,
2013-02-19 12:11:00,3.0,-9.0,-100.00,NW,304,17.0,25.0,55,0.00,,,0.00,591.000000,,2013-02-19 18:11:00,
2013-02-19 12:21:00,3.0,-9.0,-100.00,NW,304,17.0,25.0,55,0.00,,,0.00,591.000000,,2013-02-19 18:21:00,
2013-02-19 12:32:00,3.0,-9.0,-100.00,NW,304,17.0,25.0,55,0.00,,,0.00,591.000000,,2013-02-19 18:32:00,
2013-02-19 12:42:00,3.0,-9.0,-100.00,NW,304,17.0,25.0,55,0.00,,,0.00,591.000000,,2013-02-19 18:42:00,
2013-02-19 13:11:00,4.0,-9.0,-100.00,WNW,303,17.0,27.0,55,0.00,,,0.00,625.000000,,2013-02-19 19:11:00,
2013-02-19 13:21:00,4.0,-9.0,-100.00,WNW,303,17.0,27.0,55,0.00,,,0.00,625.000000,,2013-02-19 19:21:00,
2013-02-19 13:32:00,4.0,-9.0,-100.00,WNW,303,17.0,27.0,55,0.00,,,0.00,625.000000,,2013-02-19 19:32:00,
2013-02-19 13:41:00,4.0,-9.0,-100.00,WNW,303,17.0,27.0,55,0.00,,,0.00,625.000000,,2013-02-19 19:41:00,
2013-02-19 14:12:00,4.0,-9.0,-100.00,WNW,293,18.0,26.0,54,0.00,,,0.00,602.000000,,2013-02-19 20:12:00,
2013-02-19 14:21:00,4.0,-9.0,-100.00,WNW,293,18.0,26.0,54,0.00,,,0.00,602.000000,,2013-02-19 20:21:00,
2013-02-19 14:32:00,4.0,-9.0,-100.00,WNW,293,18.0,26.0,54,0.00,,,0.00,602.000000,,2013-02-19 20:32:00,
2013-02-19 14:42:00,4.0,-9.0,-100.00,WNW,293,18.0,26.0,54,0.00,,,0.00,602.000000,,2013-02-19 20:42:00,
2013-02-19 15:11:00,4.0,-9.0,-100.00,WNW,298,18.0,25.0,53,0.00,,,0.00,518.000000,,2013-02-19 21:11:00,
2013-02-19 15:21:00,4.0,-9.0,-100.00,WNW,298,18.0,25.0,53,0.00,,,0.00,518.000000,,2013-02-19 21:21:00,
2013-02-19 15:32:00,4.0,-9.0,-100.00,WNW,298,18.0,25.0,53,0.00,,,0.00,518.000000,,2013-02-19 21:32:00,
2013-02-19 15:42:00,4.0,-9.0,-100.00,WNW,298,18.0,25.0,53,0.00,,,0.00,518.000000,,2013-02-19 21:42:00,
2013-02-19 16:11:00,4.0,-10.0,-100.00,NW,304,15.0,26.0,51,0.00,,,0.00,394.000000,,2013-02-19 22:11:00,
2013-02-19 16:21:00,4.0,-10.0,-100.00,NW,304,15.0,26.0,51,0.00,,,0.00,394.000000,,2013-02-19 22:21:00,
2013-02-19 16:32:00,4.0,-10.0,-100.00,NW,304,15.0,26.0,51,0.00,,,0.00,394.000000,,2013-02-19 22:32:00,
2013-02-19 16:41:00,4.0,-10.0,-100.00,NW,304,15.0,26.0,51,0.00,,,0.00,394.000000,,2013-02-19 22:41:00,
2013-02-19 17:11:00,3.0,-11.0,-100.00,NW,306,15.0,23.0,52,0.00,,,0.00,232.000000,,2013-02-19 23:11:00,
2013-02-19 17:21:00,3.0,-11.0,-100.00,NW,306,15.0,23.0,52,0.00,,,0.00,232.000000,,2013-02-19 23:21:00,
2013-02-19 17:32:00,3.0,-11.0,-100.00,NW,306,15.0,23.0,52,0.00,,,0.00,232.000000,,2013-02-19 23:32:00,
2013-02-19 17:42:00,3.0,-11.0,-100.00,NW,306,15.0,23.0,52,0.00,,,0.00,232.000000,,2013-02-19 23:42:00,
2013-02-19 18:11:00,1.0,-11.0,-100.00,WNW,296,10.0,20.0,55,0.00,,,0.00,60.000000,,2013-02-20 00:11:00,
2013-02-19 18:21:00,1.0,-11.0,-100.00,WNW,296,10.0,20.0,55,0.00,,,0.00,60.000000,,2013-02-20 00:21:00,
2013-02-19 18:32:00,1.0,-11.0,-100.00,WNW,296,10.0,20.0,55,0.00,,,0.00,60.000000,,2013-02-20 00:32:00,
2013-02-19 18:42:00,1.0,-11.0,-100.00,WNW,296,10.0,20.0,55,0.00,,,0.00,60.000000,,2013-02-20 00:42:00,
2013-02-19 19:11:00,0.0,-11.0,-100.00,WNW,296,12.0,15.0,59,0.00,,,0.00,2.000000,,2013-02-20 01:11:00,
2013-02-19 19:21:00,0.0,-11.0,-100.00,WNW,296,12.0,15.0,59,0.00,,,0.00,2.000000,,2013-02-20 01:21:00,
2013-02-19 19:32:00,0.0,-11.0,-100.00,WNW,296,12.0,15.0,59,0.00,,,0.00,2.000000,,2013-02-20 01:32:00,
2013-02-19 19:42:00,0.0,-11.0,-100.00,WNW,296,12.0,15.0,59,0.00,,,0.00,2.000000,,2013-02-20 01:42:00,
2013-02-19 20:11:00,-1.0,-12.0,-100.00,WNW,300,11.0,16.0,59,0.00,,,0.00,1.000000,,2013-02-20 02:11:00,
2013-02-19 20:21:00,-1.0,-12.0,-100.00,WNW,300,11.0,16.0,59,0.00,,,0.00,1.000000,,2013-02-20 02:21:00,
2013-02-19 20:32:00,-1.0,-12.0,-100.00,WNW,300,11.0,16.0,59,0.00,,,0.00,1.000000,,2013-02-20 02:32:00,
2013-02-19 20:42:00,-1.0,-12.0,-100.00,WNW,300,11.0,16.0,59,0.00,,,0.00,1.000000,,2013-02-20 02:42:00,
2013-02-19 21:12:00,-3.0,-13.0,-100.00,WNW,300,3.0,15.0,61,0.00,,,0.00,1.000000,,2013-02-20 03:12:00,
2013-02-19 21:22:00,-3.0,-13.0,-100.00,WNW,300,3.0,15.0,61,0.00,,,0.00,1.000000,,2013-02-20 03:22:00,
2013-02-19 21:32:00,-3.0,-13.0,-100.00,WNW,300,3.0,15.0,61,0.00,,,0.00,1.000000,,2013-02-20 03:32:00,
2013-02-19 21:41:00,-3.0,-13.0,-100.00,WNW,300,3.0,15.0,61,0.00,,,0.00,1.000000,,2013-02-20 03:41:00,
2013-02-19 22:11:00,-4.0,-14.0,-100.00,NW,305,5.0,7.0,61,0.00,,,0.00,1.000000,,2013-02-20 04:11:00,
2013-02-19 22:21:00,-4.0,-14.0,-100.00,NW,305,5.0,7.0,61,0.00,,,0.00,1.000000,,2013-02-20 04:21:00,
2013-02-19 22:31:00,-4.0,-14.0,-100.00,NW,305,5.0,7.0,61,0.00,,,0.00,1.000000,,2013-02-20 04:31:00,
2013-02-19 22:42:00,-4.0,-14.0,-100.00,NW,305,5.0,7.0,61,0.00,,,0.00,1.000000,,2013-02-20 04:42:00,
2013-02-19 23:12:00,-4.0,-13.0,-100.00,West,279,5.0,6.0,63,0.00,,,0.00,1.000000,,2013-02-20 05:12:00,
2013-02-19 23:22:00,-4.0,-13.0,-100.00,West,279,5.0,6.0,63,0.00,,,0.00,1.000000,,2013-02-20 05:22:00,
2013-02-19 23:32:00,-4.0,-13.0,-100.00,West,279,5.0,6.0,63,0.00,,,0.00,1.000000,,2013-02-20 05:32:00,
2013-02-19 23:43:00,-4.0,-13.0,-100.00,West,279,5.0,6.0,63,0.00,,,0.00,1.000000,,2013-02-20 05:43:00,